This is the latest recevied weather packets stored in our database for station/object KB1JLI. If no packets are shown the sender has not sent any weather packets the latest 10 day(s).
| Time | Temp. | Humidity | Pressure | Rain* | Wind** | Luminosity | Snow |
|---|---|---|---|---|---|---|---|
| 1777643440 | 11.67° C | 53% | 1009.9 hPa | 0 mm | - | 524 W/m² | - |
| 1777643137 | 11.11° C | 55% | 1009.6 hPa | 0 mm | - | 519 W/m² | - |
| 1777642833 | 11.11° C | 58% | 1009.9 hPa | 0 mm | - | 506 W/m² | - |
| 1777642530 | 11.11° C | 56% | 1009.7 hPa | 0 mm | - | 494 W/m² | - |
| 1777642226 | 11.11° C | 57% | 1009.8 hPa | 0 mm | - | 482 W/m² | - |
| 1777641924 | 11.11° C | 57% | 1009.8 hPa | 0 mm | - | 469 W/m² | - |
| 1777641619 | 10.56° C | 59% | 1009.8 hPa | 0 mm | - | 457 W/m² | - |
| 1777641314 | 10.56° C | 59% | 1009.9 hPa | 0 mm | - | 445 W/m² | - |
| 1777641010 | 10.56° C | 62% | 1009.9 hPa | 0 mm | - | 431 W/m² | - |
| 1777640706 | 10.56° C | 62% | 1009.7 hPa | 0 mm | - | 417 W/m² | - |
| 1777640403 | 10° C | 63% | 1009.7 hPa | 0 mm | - | 405 W/m² | - |
| 1777640100 | 10.56° C | 63% | 1009.7 hPa | 0 mm | - | 392 W/m² | - |
| 1777639796 | 10° C | 65% | 1009.6 hPa | 0 mm | - | 378 W/m² | - |
| 1777639495 | 10° C | 64% | 1009.7 hPa | 0 mm | - | 364 W/m² | - |
| 1777639191 | 10° C | 66% | 1009.6 hPa | 0 mm | - | 349 W/m² | - |
| 1777638887 | 10° C | 67% | 1009.6 hPa | 0 mm | - | 337 W/m² | - |
| 1777638583 | 10° C | 67% | 1009.7 hPa | 0 mm | - | 321 W/m² | - |
| 1777638280 | 9.44° C | 69% | 1009.6 hPa | 0 mm | - | 310 W/m² | - |
| 1777637976 | 9.44° C | 71% | 1009.4 hPa | 0 mm | - | 292 W/m² | - |
| 1777637672 | 8.89° C | 71% | 1009.7 hPa | 0 mm | - | 278 W/m² | - |
| 1777637370 | 9.44° C | 72% | 1009.6 hPa | 0 mm | - | 262 W/m² | - |
| 1777637066 | 8.89° C | 74% | 1009.7 hPa | 0 mm | - | 247 W/m² | - |
| 1777636762 | 8.89° C | 75% | 1009.5 hPa | 0 mm | - | 233 W/m² | - |
| 1777636458 | 8.89° C | 75% | 1009.6 hPa | 0 mm | - | 220 W/m² | - |
| 1777636154 | 8.89° C | 76% | 1009.5 hPa | 0 mm | - | 206 W/m² | - |
* Rain latest hour (hover to see other rain measurements)
** Current wind speed in m/s (hover to see current wind gust speed)